GW0761 Weather Reports


time (UTC)temp
F
wind
direction
speed
knots
gust
knots
rain 1hr
in
rain 24hr
in
rain mn
in
humidity
%
barometer
mb
20260505092549 53 269 0.0 0.0 0.00 0.00 0.00 92 1014.8
20260505091033 54 269 0.0 0.0 0.00 0.00 0.00 91 1014.7
20260505085531 54 269 0.0 0.0 0.00 0.00 0.00 91 1014.6
20260505084029 54 269 0.0 0.0 0.00 0.00 0.00 91 1014.7
20260505082526 54 269 0.0 0.0 0.00 0.00 0.00 91 1014.8
20260505081025 54 269 0.0 0.0 0.00 0.00 0.00 91 1014.8
20260505075516 54 269 0.0 0.0 0.00 0.00 0.00 91 1014.9
20260505074016 54 269 0.0 0.0 0.00 0.00 0.00 90 1014.9
20260505072513 54 269 0.0 0.0 0.00 0.00 0.00 90 1014.7
20260505071011 54 269 0.0 0.0 0.00 0.00 0.00 90 1014.8
20260505065510 54 269 0.0 0.0 0.00 0.00 0.00 89 1014.9
20260505064009 54 269 0.0 0.0 0.00 0.00 0.00 88 1014.9
20260505062453 54 269 0.0 0.0 0.00 0.00 0.00 87 1014.8
20260505060950 55 269 0.0 1.7 0.00 0.00 0.00 86 1014.9
20260505055447 55 321 0.0 2.6 0.00 0.00 0.00 86 1014.9
20260505053948 55 264 0.0 1.7 0.00 0.00 0.00 86 1015.0
20260505052446 55 298 0.0 4.3 0.00 0.00 0.00 86 1015.0
20260505050943 55 335 0.0 0.0 0.00 0.00 0.00 85 1014.9
20260505040935 55 335 0.0 0.0 0.00 0.00 0.00 84 1014.4
20260505040118 55 335 0.0 0.9 0.00 0.00 0.00 84 1014.1
20260505033925 55 335 0.0 0.9 0.00 0.00 0.00 84 1014.1
20260505032416 55 252 0.0 1.7 0.00 0.00 0.00 84 1014.0
20260505030915 55 280 0.0 1.7 0.00 0.00 0.00 85 1013.9
20260505025406 55 282 0.0 0.0 0.00 0.00 0.00 84 1013.7
20260505023904 55 282 0.0 0.0 0.00 0.00 0.00 83 1013.6
20260505022405 56 282 0.0 0.9 0.00 0.00 0.00 81 1013.5
20260505020901 57 293 0.0 3.5 0.00 0.00 0.00 79 1013.5
20260505015400 58 248 0.9 4.3 0.00 0.00 0.00 76 1013.5
20260505014553 60 258 1.7 3.5 0.00 0.00 0.00 73 1013.4
20260505012356 61 329 0.9 4.3 0.00 0.00 0.00 71 1013.7
20260505010854 61 259 1.7 5.2 0.00 0.00 0.00 71 1013.8
20260505010047 63 274 1.7 3.5 0.00 0.00 0.00 69 1013.9
20260505003845 63 213 1.7 6.1 0.00 0.00 0.00 70 1014.0
20260505002344 62 288 0.9 7.0 0.00 0.00 0.00 69 1014.0
20260505000842 62 276 1.7 7.8 0.00 0.00 0.00 70 1013.9
20260504235341 62 259 0.9 4.3 0.00 0.00 0.00 71 1014.1
20260504233837 62 288 1.7 7.0 0.00 0.00 0.00 70 1013.9
20260504232336 63 60 2.6 6.1 0.00 0.00 0.00 71 1014.0
20260504230835 62 55 0.9 6.1 0.00 0.00 0.00 72 1013.9
20260504225335 62 267 1.7 6.1 0.00 0.00 0.00 72 1014.1
20260504223831 62 293 0.9 4.3 0.00 0.00 0.00 73 1014.2
20260504222330 61 257 0.9 5.2 0.00 0.00 0.00 76 1014.4
20260504220827 61 7 1.7 10.4 0.00 0.00 0.00 75 1014.5
20260504215326 61 281 1.7 7.0 0.00 0.00 0.00 75 1014.6
20260504213825 61 92 0.9 6.1 0.00 0.00 0.00 76 1014.6
20260504212323 61 217 2.6 6.1 0.00 0.00 0.00 75 1014.6
20260504210821 61 27 0.9 6.1 0.00 0.00 0.00 76 1014.5
20260504205319 60 237 1.7 4.3 0.00 0.00 0.00 76 1014.5
20260504203817 60 6 1.7 7.8 0.00 0.00 0.00 76 1014.5
20260504202316 60 93 1.7 6.1 0.00 0.00 0.00 78 1014.6
20260504200812 60 259 1.7 6.1 0.00 0.00 0.00 77 1014.5
20260504195311 60 314 0.0 4.3 0.00 0.00 0.00 79 1014.5
20260504193809 60 281 1.7 6.1 0.00 0.00 0.00 78 1014.3
20260504192307 61 2 0.9 4.3 0.00 0.00 0.00 76 1014.2
20260504190806 61 16 0.9 3.5 0.00 0.00 0.00 77 1014.3
20260504185959 60 130 0.9 5.2 0.00 0.00 0.00 77 1014.4
20260504183803 60 232 0.9 6.1 0.00 0.00 0.00 76 1014.5
20260504182300 60 279 0.9 4.3 0.00 0.00 0.00 77 1014.5
20260504180758 60 259 0.9 4.3 0.00 0.00 0.00 78 1014.4
20260504175256 59 161 0.0 3.5 0.00 0.00 0.00 78 1014.3
20260504173754 59 10 0.0 2.6 0.00 0.00 0.00 78 1014.4
20260504172252 59 101 0.0 3.5 0.00 0.00 0.00 78 1014.3
20260504171439 58 15 0.0 3.5 0.00 0.00 0.00 80 1014.3
20260504150738 55 276 0.0 0.0 0.00 0.00 0.00 87 1014.0
20260504130644 52 276 0.0 0.0 0.00 0.00 0.00 94 1012.9
20260504110606 52 276 0.0 0.0 0.00 0.00 0.00 94 1012.8